,,,PA_Meas_PMT16A,,PR_Meas_QMR101_102,,RH_Meas_QMH101,,SR_Meas_QMS101,,TA_Meas_QMH101,,GenWind,,GenWind,
date,time,status,PA,status,PR,status,RH,status,SR,status,TA,status,DirAvg,status,SpdAvg,
2012-02-21, 00:00:04,VALID,1004.39,VALID,0,VALID,91.1575,VALID,0,VALID,24.8503,VALID,304,VALID,0,
2012-02-21, 00:01:04,VALID,1004.41,VALID,0,VALID,91.1575,VALID,0,VALID,24.8892,VALID,304,VALID,0.23125,
2012-02-21, 00:02:04,VALID,1004.37,VALID,0,VALID,91.1346,VALID,0,VALID,24.9087,VALID,304,VALID,0.15625,
2012-02-21, 00:03:04,VALID,1004.36,VALID,0,VALID,90.9668,VALID,0,VALID,24.93,VALID,304,VALID,0.341406,
2012-02-21, 00:04:04,VALID,1004.35,VALID,0,VALID,90.9057,VALID,0,VALID,24.9282,VALID,304,VALID,0.532031,
2012-02-21, 00:05:04,VALID,1004.33,VALID,0,VALID,90.8066,VALID,0,VALID,24.93,VALID,328,VALID,0.645312,
2012-02-21, 00:06:04,VALID,1004.3,VALID,0,VALID,90.8829,VALID,0,VALID,24.8697,VALID,334,VALID,0.685938,
2012-02-21, 00:07:04,VALID,1004.29,VALID,0,VALID,90.982,VALID,0,VALID,24.8503,VALID,346,VALID,0.891016,
2012-02-21, 00:08:04,VALID,1004.27,VALID,0,VALID,91.1499,VALID,0,VALID,24.8113,VALID,348,VALID,1.13281,
2012-02-21, 00:09:04,VALID,1004.22,VALID,0,VALID,91.2414,VALID,0,VALID,24.8113,VALID,351,VALID,1.15742,
2012-02-21, 00:10:04,VALID,1004.2,VALID,0,VALID,90.9363,VALID,0,VALID,24.8327,VALID,351,VALID,1.73945,
2012-02-21, 00:11:04,VALID,1004.13,VALID,0,VALID,90.593,VALID,0,VALID,24.8911,VALID,350,VALID,1.09023,
2012-02-21, 00:12:04,VALID,1004.09,VALID,0,VALID,90.4175,VALID,0,VALID,24.93,VALID,342,VALID,0.68125,
2012-02-21, 00:13:04,VALID,1004.05,VALID,0,VALID,90.2344,VALID,0,VALID,24.9476,VALID,340,VALID,0.898047,
2012-02-21, 00:14:04,VALID,1003.99,VALID,0,VALID,90.1581,VALID,0,VALID,25.0079,VALID,351,VALID,1.25156,
2012-02-21, 00:15:04,VALID,1003.97,VALID,0,VALID,89.9903,VALID,0,VALID,25.0274,VALID,337,VALID,0.94375,
2012-02-21, 00:16:04,VALID,1003.96,VALID,0,VALID,89.8453,VALID,0,VALID,25.045,VALID,348,VALID,1.00937,
2012-02-21, 00:17:04,VALID,1003.92,VALID,0,VALID,89.7385,VALID,0,VALID,25.0644,VALID,347,VALID,0.941016,
2012-02-21, 00:18:04,VALID,1003.92,VALID,0,VALID,89.6012,VALID,0,VALID,25.0644,VALID,355,VALID,1.34805,
2012-02-21, 00:19:04,VALID,1003.9,VALID,0,VALID,89.6775,VALID,0,VALID,25.1053,VALID,356,VALID,0.978906,
2012-02-21, 00:20:04,VALID,1003.89,VALID,0,VALID,89.5936,VALID,0,VALID,25.1053,VALID,352,VALID,1.74961,
2012-02-21, 00:21:04,VALID,1003.88,VALID,0,VALID,89.6546,VALID,0,VALID,25.1442,VALID,350,VALID,1.55352,
2012-02-21, 00:22:04,VALID,1003.86,VALID,0,VALID,89.4105,VALID,0,VALID,25.1442,VALID,348,VALID,1.57031,
2012-02-21, 00:23:04,VALID,1003.76,VALID,0,VALID,89.2426,VALID,0,VALID,25.1832,VALID,317,VALID,1.50859,
2012-02-21, 00:24:04,VALID,1003.77,VALID,0,VALID,89.113,VALID,0,VALID,25.2027,VALID,352,VALID,1.32266,
2012-02-21, 00:25:04,VALID,1003.74,VALID,0,VALID,89.0214,VALID,0,VALID,25.2027,VALID,290,VALID,0.349609,
2012-02-21, 00:26:04,VALID,1003.76,VALID,0,VALID,88.907,VALID,0,VALID,25.2007,VALID,347,VALID,0.8,
2012-02-21, 00:27:04,VALID,1003.76,VALID,0,VALID,88.9833,VALID,0,VALID,25.1813,VALID,351,VALID,1.03086,
2012-02-21, 00:28:04,VALID,1003.75,VALID,0,VALID,89.1206,VALID,0,VALID,25.1832,VALID,360,VALID,1.48672,
2012-02-21, 00:29:04,VALID,1003.76,VALID,0,VALID,89.2121,VALID,0,VALID,25.1229,VALID,346,VALID,1.68828,
2012-02-21, 00:30:04,VALID,1003.79,VALID,0,VALID,89.3418,VALID,0,VALID,25.1034,VALID,344,VALID,1.35586,
2012-02-21, 00:31:04,VALID,1003.81,VALID,0,VALID,89.502,VALID,0,VALID,25.1053,VALID,348,VALID,1.56641,
2012-02-21, 00:32:04,VALID,1003.8,VALID,0,VALID,89.5631,VALID,0,VALID,25.0858,VALID,338,VALID,1.08789,
2012-02-21, 00:33:04,VALID,1003.8,VALID,0,VALID,89.6775,VALID,0,VALID,25.0255,VALID,354,VALID,1.08906,
2012-02-21, 00:34:04,VALID,1003.77,VALID,0,VALID,89.8072,VALID,0,VALID,25.0255,VALID,346,VALID,1.18906,
2012-02-21, 00:35:04,VALID,1003.75,VALID,0,VALID,89.9369,VALID,0,VALID,24.9866,VALID,337,VALID,1.26016,
2012-02-21, 00:36:04,VALID,1003.76,VALID,0,VALID,90.1047,VALID,0,VALID,25.0274,VALID,344,VALID,1.03555,
2012-02-21, 00:37:04,VALID,1003.76,VALID,0,VALID,90.0513,VALID,0,VALID,25.006,VALID,346,VALID,0.84375,
2012-02-21, 00:38:04,VALID,1003.76,VALID,0,VALID,90.0589,VALID,0,VALID,24.9885,VALID,338,VALID,0.724219,
2012-02-21, 00:39:04,VALID,1003.76,VALID,0,VALID,90.1123,VALID,0,VALID,24.9885,VALID,344,VALID,0.875391,
2012-02-21, 00:40:04,VALID,1003.76,VALID,0,VALID,90.181,VALID,0,VALID,24.9282,VALID,348,VALID,1.12266,
2012-02-21, 00:41:04,VALID,1003.74,VALID,0,VALID,90.1657,VALID,0,VALID,24.9282,VALID,346,VALID,1.3793,
2012-02-21, 00:42:04,VALID,1003.73,VALID,0,VALID,90.3107,VALID,0,VALID,24.9106,VALID,325,VALID,0.439453,
2012-02-21, 00:43:04,VALID,1003.74,VALID,0,VALID,90.2954,VALID,0,VALID,24.9106,VALID,289,VALID,0.810938,
2012-02-21, 00:44:04,VALID,1003.8,VALID,0,VALID,90.3793,VALID,0,VALID,24.8697,VALID,343,VALID,0.234375,
2012-02-21, 00:45:04,VALID,1003.76,VALID,0,VALID,90.3793,VALID,0,VALID,24.8892,VALID,2,VALID,0.952344,
2012-02-21, 00:46:04,VALID,1003.76,VALID,0,VALID,90.3793,VALID,0,VALID,24.8716,VALID,354,VALID,1.37031,
2012-02-21, 00:47:04,VALID,1003.77,VALID,0,VALID,90.4327,VALID,0,VALID,24.8289,VALID,350,VALID,0.390625,
2012-02-21, 00:48:04,VALID,1003.78,VALID,0,VALID,90.4709,VALID,0,VALID,24.8308,VALID,331,VALID,0.782422,
2012-02-21, 00:49:04,VALID,1003.76,VALID,0,VALID,90.5624,VALID,0,VALID,24.854,VALID,352,VALID,0.900391,
2012-02-21, 00:50:04,VALID,1003.76,VALID,0,VALID,90.6387,VALID,0,VALID,24.7919,VALID,2,VALID,0.582031,
2012-02-21, 00:51:04,VALID,1003.77,VALID,0,VALID,90.654,VALID,0,VALID,24.7937,VALID,342,VALID,1.38125,
2012-02-21, 00:52:04,VALID,1003.77,VALID,0,VALID,90.6998,VALID,0,VALID,24.7335,VALID,329,VALID,0.825,
2012-02-21, 00:53:04,VALID,1003.78,VALID,0,VALID,90.776,VALID,0,VALID,24.7335,VALID,336,VALID,0.51875,
2012-02-21, 00:54:04,VALID,1003.77,VALID,0,VALID,90.86,VALID,0,VALID,24.7353,VALID,359,VALID,0.296875,
2012-02-21, 00:55:04,VALID,1003.77,VALID,0,VALID,90.86,VALID,0,VALID,24.7159,VALID,356,VALID,0.79375,
2012-02-21, 00:56:04,VALID,1003.78,VALID,0,VALID,90.9057,VALID,0,VALID,24.7159,VALID,348,VALID,0.801172,
2012-02-21, 00:57:04,VALID,1003.81,VALID,0,VALID,90.9286,VALID,0,VALID,24.6964,VALID,348,VALID,0.588281,
2012-02-21, 00:58:04,VALID,1003.81,VALID,0,VALID,90.982,VALID,0,VALID,24.6556,VALID,351,VALID,0.635938,
2012-02-21, 00:59:04,VALID,1003.81,VALID,0,VALID,91.1117,VALID,0,VALID,24.6361,VALID,356,VALID,0.610547,
2012-02-21, 01:00:04,VALID,1003.81,VALID,0,VALID,91.1346,VALID,0,VALID,24.6574,VALID,357,VALID,0.4125,
2012-02-21, 01:01:04,VALID,1003.83,VALID,0,VALID,91.2414,VALID,0,VALID,24.6361,VALID,357,VALID,0.232422,
2012-02-21, 01:02:04,VALID,1003.85,VALID,0,VALID,91.249,VALID,0,VALID,24.638,VALID,357,VALID,0.3,
2012-02-21, 01:03:04,VALID,1003.83,VALID,0,VALID,91.249,VALID,0,VALID,24.638,VALID,357,VALID,0,
2012-02-21, 01:04:04,VALID,1003.81,VALID,0,VALID,91.3101,VALID,0,VALID,24.5777,VALID,347,VALID,0.753516,
2012-02-21, 01:05:04,VALID,1003.78,VALID,0,VALID,91.3024,VALID,0,VALID,24.5972,VALID,351,VALID,0.442578,
2012-02-21, 01:06:04,VALID,1003.73,VALID,0,VALID,91.3711,VALID,0,VALID,24.5972,VALID,351,VALID,0.64375,
2012-02-21, 01:07:04,VALID,1003.69,VALID,0,VALID,91.333,VALID,0,VALID,24.5972,VALID,352,VALID,0.648047,
2012-02-21, 01:08:04,VALID,1003.64,VALID,0,VALID,91.249,VALID,0,VALID,24.5582,VALID,350,VALID,0.718359,
2012-02-21, 01:09:04,VALID,1003.6,VALID,0,VALID,91.2033,VALID,0,VALID,24.5193,VALID,350,VALID,0.837109,
2012-02-21, 01:10:04,VALID,1003.6,VALID,0,VALID,91.3787,VALID,0,VALID,24.4609,VALID,350,VALID,0.540234,
2012-02-21, 01:11:04,VALID,1003.59,VALID,0,VALID,91.5313,VALID,0,VALID,24.422,VALID,350,VALID,0.675,
2012-02-21, 01:12:04,VALID,1003.59,VALID,0,VALID,91.7602,VALID,0,VALID,24.4025,VALID,342,VALID,0.666797,
2012-02-21, 01:13:04,VALID,1003.56,VALID,0,VALID,91.9585,VALID,0,VALID,24.383,VALID,339,VALID,0.541406,
2012-02-21, 01:14:04,VALID,1003.57,VALID,0,VALID,92.0043,VALID,0,VALID,24.383,VALID,338,VALID,0.498047,
2012-02-21, 01:15:04,VALID,1003.51,VALID,0,VALID,92.0806,VALID,0,VALID,24.383,VALID,337,VALID,0.583594,
2012-02-21, 01:16:04,VALID,1003.52,VALID,0,VALID,92.0882,VALID,0,VALID,24.383,VALID,336,VALID,0.469531,
2012-02-21, 01:17:04,VALID,1003.5,VALID,0,VALID,92.0577,VALID,0,VALID,24.4043,VALID,339,VALID,0.469531,
2012-02-21, 01:18:04,VALID,1003.47,VALID,0,VALID,92.0119,VALID,0,VALID,24.3849,VALID,339,VALID,0.28125,
2012-02-21, 01:19:04,VALID,1003.48,VALID,0,VALID,92.0196,VALID,0,VALID,24.3441,VALID,339,VALID,0.439063,
2012-02-21, 01:20:04,VALID,1003.45,VALID,0,VALID,92.0424,VALID,0,VALID,24.3246,VALID,339,VALID,0.583984,
2012-02-21, 01:21:04,VALID,1003.46,VALID,0,VALID,92.195,VALID,0,VALID,24.3052,VALID,339,VALID,0.630469,
2012-02-21, 01:22:04,VALID,1003.43,VALID,0,VALID,92.2484,VALID,0,VALID,24.307,VALID,340,VALID,0.539453,
2012-02-21, 01:23:04,VALID,1003.42,VALID,0,VALID,92.2866,VALID,0,VALID,24.2857,VALID,340,VALID,0.541406,
2012-02-21, 01:24:04,VALID,1003.43,VALID,0,VALID,92.2942,VALID,0,VALID,24.2662,VALID,340,VALID,0.6,
2012-02-21, 01:25:04,VALID,1003.46,VALID,0,VALID,92.3018,VALID,0,VALID,24.2255,VALID,340,VALID,0.540625,
2012-02-21, 01:26:04,VALID,1003.45,VALID,0,VALID,92.4391,VALID,0,VALID,24.2273,VALID,340,VALID,0.534375,
2012-02-21, 01:27:04,VALID,1003.45,VALID,0,VALID,92.5154,VALID,0,VALID,24.2273,VALID,340,VALID,0.582422,
2012-02-21, 01:28:04,VALID,1003.48,VALID,0,VALID,92.5917,VALID,0,VALID,24.2273,VALID,340,VALID,0.69375,
2012-02-21, 01:29:04,VALID,1003.45,VALID,0,VALID,92.6299,VALID,0,VALID,24.2273,VALID,340,VALID,0.592578,
2012-02-21, 01:30:04,VALID,1003.46,VALID,0,VALID,92.668,VALID,0,VALID,24.2486,VALID,341,VALID,0.633594,
2012-02-21, 01:31:04,VALID,1003.44,VALID,0,VALID,92.668,VALID,0,VALID,24.2273,VALID,345,VALID,0.350781,
2012-02-21, 01:32:04,VALID,1003.44,VALID,0,VALID,92.6451,VALID,0,VALID,24.2681,VALID,345,VALID,0.519141,
2012-02-21, 01:33:04,VALID,1003.43,VALID,0,VALID,92.6146,VALID,0.0815089,VALID,24.2468,VALID,345,VALID,0.484375,
2012-02-21, 01:34:04,VALID,1003.44,VALID,0,VALID,92.5993,VALID,0,VALID,24.2273,VALID,345,VALID,0.333203,
2012-02-21, 01:35:04,VALID,1003.43,VALID,0,VALID,92.5688,VALID,0,VALID,24.2273,VALID,345,VALID,0.45625,
2012-02-21, 01:36:04,VALID,1003.42,VALID,0,VALID,92.6299,VALID,0,VALID,24.2273,VALID,345,VALID,0.433594,
2012-02-21, 01:37:04,VALID,1003.44,VALID,0,VALID,92.6756,VALID,0,VALID,24.2291,VALID,345,VALID,0.560156,
2012-02-21, 01:38:04,VALID,1003.46,VALID,0,VALID,92.6528,VALID,0,VALID,24.2078,VALID,345,VALID,0.659766,
2012-02-21, 01:39:04,VALID,1003.44,VALID,0,VALID,92.6528,VALID,0,VALID,24.2078,VALID,345,VALID,0.675391,
2012-02-21, 01:40:04,VALID,1003.41,VALID,0,VALID,92.668,VALID,0,VALID,24.206,VALID,345,VALID,0.632422,
2012-02-21, 01:41:04,VALID,1003.37,VALID,0,VALID,92.668,VALID,0,VALID,24.2273,VALID,345,VALID,0.589844,
2012-02-21, 01:42:04,VALID,1003.35,VALID,0,VALID,92.668,VALID,0,VALID,24.2468,VALID,338,VALID,0.762109,
2012-02-21, 01:43:04,VALID,1003.3,VALID,0,VALID,92.5917,VALID,0,VALID,24.2857,VALID,343,VALID,0.652734,
2012-02-21, 01:44:04,VALID,1003.32,VALID,0,VALID,92.546,VALID,0.0815089,VALID,24.3246,VALID,345,VALID,0.758594,
2012-02-21, 01:45:04,VALID,1003.27,VALID,0,VALID,92.3171,VALID,0,VALID,24.3246,VALID,346,VALID,0.774609,
2012-02-21, 01:46:04,VALID,1003.24,VALID,0,VALID,92.2408,VALID,0,VALID,24.3636,VALID,346,VALID,0.713281,
2012-02-21, 01:47:04,VALID,1003.23,VALID,0,VALID,92.0653,VALID,0,VALID,24.4025,VALID,347,VALID,0.967578,
2012-02-21, 01:48:04,VALID,1003.22,VALID,0,VALID,91.7831,VALID,0,VALID,24.422,VALID,342,VALID,0.844531,
2012-02-21, 01:49:04,VALID,1003.24,VALID,0,VALID,91.661,VALID,0,VALID,24.4609,VALID,343,VALID,0.69375,
2012-02-21, 01:50:04,VALID,1003.26,VALID,0,VALID,91.4703,VALID,0,VALID,24.4804,VALID,345,VALID,0.724219,
2012-02-21, 01:51:04,VALID,1003.27,VALID,0,VALID,91.4092,VALID,0,VALID,24.5193,VALID,344,VALID,0.708203,
2012-02-21, 01:52:04,VALID,1003.28,VALID,0,VALID,91.3177,VALID,0,VALID,24.5193,VALID,345,VALID,0.814453,
2012-02-21, 01:53:04,VALID,1003.25,VALID,0,VALID,91.1804,VALID,0,VALID,24.5388,VALID,342,VALID,1,
2012-02-21, 01:54:04,VALID,1003.31,VALID,0,VALID,91.1193,VALID,0,VALID,24.5972,VALID,356,VALID,0.791406,
2012-02-21, 01:55:04,VALID,1003.25,VALID,0,VALID,90.7837,VALID,0,VALID,24.6361,VALID,352,VALID,0.569141,
2012-02-21, 01:56:04,VALID,1003.3,VALID,0,VALID,90.6235,VALID,0,VALID,24.675,VALID,345,VALID,0.398438,
2012-02-21, 01:57:04,VALID,1003.26,VALID,0,VALID,90.4556,VALID,0.0815089,VALID,24.6945,VALID,347,VALID,0.642578,
2012-02-21, 01:58:04,VALID,1003.25,VALID,0,VALID,90.2878,VALID,0,VALID,24.7548,VALID,358,VALID,0.641406,
2012-02-21, 01:59:04,VALID,1003.26,VALID,0,VALID,90.0971,VALID,0,VALID,24.7724,VALID,346,VALID,1.10195,
2012-02-21, 02:00:04,VALID,1003.22,VALID,0,VALID,89.975,VALID,0,VALID,24.7919,VALID,357,VALID,0.935156,
2012-02-21, 02:01:04,VALID,1003.2,VALID,0,VALID,89.9064,VALID,0,VALID,24.7919,VALID,358,VALID,1.33516,
2012-02-21, 02:02:04,VALID,1003.15,VALID,0,VALID,89.7919,VALID,0,VALID,24.8327,VALID,2,VALID,1.49688,
2012-02-21, 02:03:04,VALID,1003.14,VALID,0,VALID,89.7004,VALID,0,VALID,24.8095,VALID,353,VALID,0.9875,
2012-02-21, 02:04:04,VALID,1003.09,VALID,0,VALID,89.6775,VALID,0.0815089,VALID,24.8308,VALID,353,VALID,1.00625,
2012-02-21, 02:05:04,VALID,1003.07,VALID,0,VALID,89.6241,VALID,0,VALID,24.8503,VALID,357,VALID,0.852734,
2012-02-21, 02:06:04,VALID,1003,VALID,0,VALID,89.5249,VALID,0,VALID,24.8503,VALID,348,VALID,1.09687,
2012-02-21, 02:07:04,VALID,1003,VALID,0,VALID,89.3494,VALID,0,VALID,24.8892,VALID,358,VALID,1.27461,
2012-02-21, 02:08:04,VALID,1002.99,VALID,0,VALID,89.2198,VALID,0,VALID,24.9068,VALID,358,VALID,1.15664,
2012-02-21, 02:09:04,VALID,1002.93,VALID,0,VALID,89.1892,VALID,0,VALID,24.9476,VALID,1,VALID,1.31289,
2012-02-21, 02:10:04,VALID,1002.9,VALID,0,VALID,89.2426,VALID,0,VALID,24.969,VALID,356,VALID,0.85625,
2012-02-21, 02:11:04,VALID,1002.87,VALID,0,VALID,89.2732,VALID,0,VALID,24.969,VALID,8,VALID,1.97266,
2012-02-21, 02:12:04,VALID,1002.85,VALID,0,VALID,89.113,VALID,0,VALID,24.9866,VALID,351,VALID,1.62891,
2012-02-21, 02:13:04,VALID,1002.85,VALID,0,VALID,88.9527,VALID,0,VALID,25.0255,VALID,354,VALID,1.66172,
2012-02-21, 02:14:04,VALID,1002.82,VALID,0,VALID,88.8002,VALID,0,VALID,25.045,VALID,355,VALID,0.847266,
2012-02-21, 02:15:04,VALID,1002.81,VALID,0,VALID,88.7162,VALID,0,VALID,25.0644,VALID,359,VALID,0.831641,
2012-02-21, 02:16:04,VALID,1002.79,VALID,0,VALID,88.5637,VALID,0,VALID,25.0839,VALID,359,VALID,0.69375,
2012-02-21, 02:17:04,VALID,1002.83,VALID,0,VALID,88.4187,VALID,0,VALID,25.1248,VALID,348,VALID,1.16055,
2012-02-21, 02:18:04,VALID,1002.75,VALID,0,VALID,88.4721,VALID,0,VALID,25.0839,VALID,347,VALID,1.475,
2012-02-21, 02:19:04,VALID,1002.73,VALID,0,VALID,88.3882,VALID,0,VALID,25.0839,VALID,354,VALID,1.30859,
2012-02-21, 02:20:04,VALID,1002.71,VALID,0,VALID,88.4416,VALID,0,VALID,25.1053,VALID,1,VALID,0.885547,
2012-02-21, 02:21:04,VALID,1002.66,VALID,0,VALID,88.3043,VALID,0,VALID,25.1034,VALID,344,VALID,1.67734,
2012-02-21, 02:22:04,VALID,1002.66,VALID,0,VALID,88.3882,VALID,0.0815089,VALID,25.1248,VALID,13,VALID,1.71211,
2012-02-21, 02:23:04,VALID,1002.67,VALID,0,VALID,88.5103,VALID,0,VALID,25.0839,VALID,359,VALID,1.075,
2012-02-21, 02:24:04,VALID,1002.66,VALID,0,VALID,88.4721,VALID,0,VALID,25.0644,VALID,3,VALID,1.29844,
2012-02-21, 02:25:04,VALID,1002.72,VALID,0,VALID,88.6247,VALID,0,VALID,25.045,VALID,10,VALID,1.23281,
2012-02-21, 02:26:04,VALID,1002.69,VALID,0,VALID,88.7773,VALID,0,VALID,25.045,VALID,9,VALID,1.2668,
2012-02-21, 02:27:04,VALID,1002.73,VALID,0,VALID,88.64,VALID,0,VALID,25.0644,VALID,21,VALID,1.44844,
2012-02-21, 02:28:04,VALID,1002.67,VALID,0,VALID,88.5637,VALID,0,VALID,25.1034,VALID,9,VALID,0.929297,
2012-02-21, 02:29:04,VALID,1002.7,VALID,0,VALID,88.6094,VALID,0,VALID,25.1442,VALID,17,VALID,1.26484,
2012-02-21, 02:30:04,VALID,1002.7,VALID,0,VALID,88.6171,VALID,0,VALID,25.1423,VALID,10,VALID,0.777734,
2012-02-21, 02:31:04,VALID,1002.76,VALID,0,VALID,88.5332,VALID,0,VALID,25.1813,VALID,19,VALID,1.7082,
2012-02-21, 02:32:04,VALID,1002.87,VALID,0,VALID,88.6094,VALID,0,VALID,25.2007,VALID,35,VALID,1.3,
2012-02-21, 02:33:04,VALID,1002.93,VALID,0,VALID,88.6476,VALID,0,VALID,25.2202,VALID,36,VALID,0.728906,
2012-02-21, 02:34:04,VALID,1002.98,VALID,0,VALID,88.2433,VALID,0,VALID,25.2611,VALID,12,VALID,1.84297,
2012-02-21, 02:35:04,VALID,1003.02,VALID,0,VALID,88.2433,VALID,0,VALID,25.2806,VALID,83,VALID,0.830078,
2012-02-21, 02:36:04,VALID,1003.01,VALID,0,VALID,88.0907,VALID,0,VALID,25.2202,VALID,16,VALID,2.06523,
2012-02-21, 02:37:04,VALID,1002.98,VALID,0,VALID,88.1212,VALID,0,VALID,25.2202,VALID,1,VALID,1.24492,
2012-02-21, 02:38:04,VALID,1002.97,VALID,0,VALID,88.0525,VALID,0,VALID,25.2027,VALID,20,VALID,1.04922,
2012-02-21, 02:39:04,VALID,1003.02,VALID,0,VALID,88.2509,VALID,0,VALID,25.0839,VALID,28,VALID,1.08594,
2012-02-21, 02:40:04,VALID,1003,VALID,0.5,VALID,88.8231,VALID,0,VALID,25.0079,VALID,36,VALID,0.375,
2012-02-21, 02:41:04,VALID,1003.01,VALID,0,VALID,89.2732,VALID,0,VALID,24.8503,VALID,83,VALID,0.656641,
2012-02-21, 02:42:04,VALID,1003.03,VALID,0,VALID,89.5249,VALID,0,VALID,24.7335,VALID,84,VALID,0.844531,
2012-02-21, 02:43:04,VALID,1003.06,VALID,0,VALID,89.769,VALID,0,VALID,24.6574,VALID,73,VALID,1.31016,
2012-02-21, 02:44:04,VALID,1003.02,VALID,0,VALID,89.9979,VALID,0,VALID,24.5582,VALID,104,VALID,1.36445,
2012-02-21, 02:45:04,VALID,1003.01,VALID,0,VALID,88.495,VALID,0,VALID,24.4822,VALID,108,VALID,1.23203,
2012-02-21, 02:46:04,VALID,1002.97,VALID,0.5,VALID,88.4798,VALID,0,VALID,24.4025,VALID,102,VALID,2.64922,
2012-02-21, 02:47:04,VALID,1002.87,VALID,0,VALID,89.2808,VALID,0,VALID,24.3246,VALID,123,VALID,2.29219,
2012-02-21, 02:48:04,VALID,1002.83,VALID,0.5,VALID,89.853,VALID,0,VALID,24.2273,VALID,74,VALID,1.25742,
2012-02-21, 02:49:04,VALID,1002.85,VALID,0,VALID,90.2191,VALID,0,VALID,24.13,VALID,98,VALID,0.966016,
2012-02-21, 02:50:04,VALID,1002.87,VALID,0,VALID,90.6769,VALID,0,VALID,24.0716,VALID,74,VALID,0.911328,
2012-02-21, 02:51:04,VALID,1002.9,VALID,0,VALID,90.9057,VALID,0,VALID,24.0132,VALID,79,VALID,0.95,
2012-02-21, 02:52:04,VALID,1002.97,VALID,0.5,VALID,91.2719,VALID,0,VALID,23.9742,VALID,28,VALID,0.797656,
2012-02-21, 02:53:04,VALID,1002.96,VALID,0,VALID,91.5466,VALID,0,VALID,23.9353,VALID,48,VALID,0.514453,
2012-02-21, 02:54:04,VALID,1003.02,VALID,0.5,VALID,91.5008,VALID,0,VALID,23.838,VALID,90,VALID,1.38437,
2012-02-21, 02:55:04,VALID,1003.02,VALID,0,VALID,91.6839,VALID,0,VALID,23.8009,VALID,104,VALID,1.47383,
2012-02-21, 02:56:04,VALID,1003.01,VALID,0.5,VALID,91.661,VALID,0,VALID,23.7194,VALID,106,VALID,1.67383,
2012-02-21, 02:57:04,VALID,1002.91,VALID,0,VALID,91.9204,VALID,0,VALID,23.7212,VALID,112,VALID,0.782422,
2012-02-21, 02:58:04,VALID,1002.88,VALID,0,VALID,91.6991,VALID,0,VALID,23.6628,VALID,73,VALID,0.785547,
2012-02-21, 02:59:04,VALID,1002.88,VALID,0,VALID,92.0501,VALID,0,VALID,23.6841,VALID,7,VALID,1.28164,
2012-02-21, 03:00:04,VALID,1002.81,VALID,0,VALID,92.1187,VALID,0,VALID,23.6044,VALID,1,VALID,0.925,
2012-02-21, 03:01:04,VALID,1002.78,VALID,0.5,VALID,92.2561,VALID,0.0815089,VALID,23.5832,VALID,19,VALID,0.703516,
2012-02-21, 03:02:04,VALID,1002.75,VALID,0,VALID,92.2637,VALID,0,VALID,23.585,VALID,36,VALID,0.433594,
2012-02-21, 03:03:04,VALID,1002.74,VALID,0,VALID,92.2942,VALID,0,VALID,23.5655,VALID,35,VALID,0.451172,
2012-02-21, 03:04:04,VALID,1002.73,VALID,0,VALID,92.4391,VALID,0,VALID,23.546,VALID,62,VALID,0.728516,
2012-02-21, 03:05:04,VALID,1002.7,VALID,0,VALID,92.3934,VALID,0.0815089,VALID,23.5071,VALID,92,VALID,0.567187,
2012-02-21, 03:06:04,VALID,1002.68,VALID,0,VALID,92.6299,VALID,0,VALID,23.5071,VALID,104,VALID,0.561328,
2012-02-21, 03:07:04,VALID,1002.71,VALID,0.5,VALID,92.935,VALID,0,VALID,23.5071,VALID,143,VALID,1.04062,
2012-02-21, 03:08:04,VALID,1002.73,VALID,0,VALID,92.8435,VALID,0,VALID,23.4664,VALID,156,VALID,0.844922,
2012-02-21, 03:09:04,VALID,1002.75,VALID,0,VALID,93.08,VALID,0,VALID,23.4877,VALID,156,VALID,0.925391,
2012-02-21, 03:10:04,VALID,1002.76,VALID,0,VALID,93.1334,VALID,0,VALID,23.4682,VALID,133,VALID,0.500781,
2012-02-21, 03:11:04,VALID,1002.78,VALID,0,VALID,93.1563,VALID,0,VALID,23.4877,VALID,136,VALID,0.685156,
2012-02-21, 03:12:04,VALID,1002.74,VALID,0,VALID,92.874,VALID,0,VALID,23.4293,VALID,137,VALID,1.09063,
2012-02-21, 03:13:04,VALID,1002.7,VALID,0,VALID,92.9655,VALID,0.0815089,VALID,23.4098,VALID,131,VALID,0.675781,
2012-02-21, 03:14:04,VALID,1002.68,VALID,0,VALID,93.0647,VALID,0,VALID,23.4098,VALID,131,VALID,0.952734,
2012-02-21, 03:15:04,VALID,1002.7,VALID,0,VALID,93.141,VALID,0,VALID,23.4098,VALID,126,VALID,0.741406,
2012-02-21, 03:16:04,VALID,1002.71,VALID,0.5,VALID,92.9655,VALID,0,VALID,23.3904,VALID,116,VALID,0.844141,
2012-02-21, 03:17:04,VALID,1002.73,VALID,0,VALID,93.0571,VALID,0,VALID,23.3691,VALID,87,VALID,0.862109,
2012-02-21, 03:18:04,VALID,1002.73,VALID,0,VALID,93.141,VALID,0,VALID,23.3497,VALID,73,VALID,0.545313,
2012-02-21, 03:19:04,VALID,1002.67,VALID,0,VALID,93.3317,VALID,0,VALID,23.3709,VALID,26,VALID,0.880469,
2012-02-21, 03:20:05,VALID,1002.72,VALID,0,VALID,93.5682,VALID,0.0815089,VALID,23.3904,VALID,360,VALID,1.00664,
2012-02-21, 03:21:05,VALID,1002.66,VALID,0,VALID,93.5758,VALID,0,VALID,23.3904,VALID,1,VALID,1.00117,
2012-02-21, 03:22:05,VALID,1002.59,VALID,0,VALID,93.553,VALID,0,VALID,23.3709,VALID,11,VALID,0.483594,
2012-02-21, 03:23:05,VALID,1002.55,VALID,0,VALID,93.614,VALID,0.0815089,VALID,23.3514,VALID,12,VALID,0,
2012-02-21, 03:24:05,VALID,1002.53,VALID,0,VALID,93.5453,VALID,0.0815089,VALID,23.3125,VALID,13,VALID,0.333984,
2012-02-21, 03:25:05,VALID,1002.53,VALID,0,VALID,93.5682,VALID,0,VALID,23.2931,VALID,97,VALID,0.0183594,
2012-02-21, 03:26:05,VALID,1002.5,VALID,0,VALID,93.6064,VALID,0.0815089,VALID,23.2736,VALID,97,VALID,0.125,
2012-02-21, 03:27:05,VALID,1002.47,VALID,0,VALID,93.5835,VALID,0,VALID,23.2524,VALID,97,VALID,0,
2012-02-21, 03:28:05,VALID,1002.41,VALID,0,VALID,93.6292,VALID,0,VALID,23.2736,VALID,92,VALID,0.100781,
2012-02-21, 03:29:05,VALID,1002.4,VALID,0,VALID,93.675,VALID,0,VALID,23.2541,VALID,92,VALID,0,
2012-02-21, 03:30:05,VALID,1002.45,VALID,0,VALID,93.7513,VALID,0,VALID,23.2541,VALID,92,VALID,0.218359,
2012-02-21, 03:31:05,VALID,1002.47,VALID,0,VALID,93.7666,VALID,0,VALID,23.2736,VALID,92,VALID,0.511719,
2012-02-21, 03:32:05,VALID,1002.5,VALID,0,VALID,93.7589,VALID,0.0815089,VALID,23.2541,VALID,103,VALID,0.806641,
2012-02-21, 03:33:05,VALID,1002.55,VALID,0,VALID,93.7971,VALID,0.0815089,VALID,23.2117,VALID,100,VALID,0.722266,
2012-02-21, 03:34:05,VALID,1002.59,VALID,0,VALID,93.8505,VALID,0,VALID,23.2347,VALID,100,VALID,0.0265625,
2012-02-21, 03:35:05,VALID,1002.61,VALID,0,VALID,93.8276,VALID,0,VALID,23.2347,VALID,74,VALID,0.298438,
2012-02-21, 03:36:05,VALID,1002.62,VALID,0,VALID,93.8657,VALID,0,VALID,23.2152,VALID,336,VALID,0.639844,
2012-02-21, 03:37:05,VALID,1002.62,VALID,0,VALID,93.942,VALID,0,VALID,23.2347,VALID,300,VALID,0.492969,
2012-02-21, 03:38:05,VALID,1002.66,VALID,0,VALID,93.8963,VALID,0.0815089,VALID,23.2134,VALID,299,VALID,0.368359,
2012-02-21, 03:39:05,VALID,1002.59,VALID,0,VALID,93.9573,VALID,0,VALID,23.2541,VALID,299,VALID,0,
2012-02-21, 03:40:05,VALID,1002.6,VALID,0,VALID,93.9649,VALID,0,VALID,23.2524,VALID,299,VALID,0,
2012-02-21, 03:41:05,VALID,1002.59,VALID,0,VALID,93.9497,VALID,0,VALID,23.2541,VALID,299,VALID,0.278125,
2012-02-21, 03:42:05,VALID,1002.57,VALID,0,VALID,93.9039,VALID,0,VALID,23.2541,VALID,299,VALID,0,
2012-02-21, 03:43:05,VALID,1002.6,VALID,0,VALID,93.8963,VALID,0,VALID,23.2541,VALID,299,VALID,0.0582031,
2012-02-21, 03:44:05,VALID,1002.6,VALID,0,VALID,93.9039,VALID,0,VALID,23.2541,VALID,327,VALID,0.528516,
2012-02-21, 03:45:05,VALID,1002.66,VALID,0,VALID,93.942,VALID,0,VALID,23.2329,VALID,8,VALID,0.617969,